FW2977 Weather Reports


Display with metric or nautical units.
time (UTC)temp
F
wind
direction
speed
MPH
gust
MPH
rain 1hr
in
rain 24hr
in
rain mn
in
humidity
%
barometer
mb
20260506033032 53 360 0.0 5.0 0.00 0.05 0.05 90 956.0
20260506031539 54 244 1.0 3.0 0.00 0.05 0.05 90 955.8
20260506030029 54 298 1.0 5.0 0.00 0.05 0.05 90 955.9
20260506024525 55 275 0.0 3.0 0.00 0.05 0.05 91 955.7
20260506023038 56 273 2.0 5.0 0.00 0.05 0.05 91 955.8
20260506021623 56 266 2.0 4.0 0.00 0.05 0.05 91 955.6
20260506020024 57 264 1.0 3.0 0.00 0.05 0.05 91 955.5
20260506014519 57 256 0.0 3.0 0.00 0.05 0.05 91 955.4
20260506013018 58 247 0.0 1.0 0.00 0.05 0.05 90 955.4
20260506011513 60 248 1.0 4.0 0.00 0.05 0.05 88 955.1
20260506010014 61 138 0.0 4.0 0.00 0.05 0.05 84 954.9
20260506004512 61 138 1.0 4.0 0.00 0.05 0.05 81 954.7
20260506003014 61 168 1.0 5.0 0.00 0.05 0.05 81 954.3
20260506001509 61 155 1.0 5.0 0.00 0.05 0.05 81 954.3
20260506000009 61 157 1.0 6.0 0.00 0.05 0.05 83 954.1
20260505234509 61 174 0.0 3.0 0.00 0.05 0.05 83 954.1
20260505233008 61 166 1.0 5.0 0.00 0.05 0.05 84 954.2
20260505231509 61 167 0.0 2.0 0.00 0.05 0.05 84 954.0
20260505230011 61 167 0.0 2.0 0.00 0.05 0.05 85 954.2
20260505224508 61 166 0.0 7.0 0.00 0.05 0.05 84 954.0
20260505223006 62 183 1.0 7.0 0.00 0.05 0.05 82 953.9
20260505221505 62 175 3.0 8.0 0.00 0.05 0.05 79 954.0
20260505220004 62 115 0.0 8.0 0.00 0.05 0.05 81 953.5
20260505214504 64 119 3.0 7.0 0.00 0.05 0.05 81 953.5
20260505213014 64 175 0.0 3.0 0.00 0.05 0.05 80 953.3
20260505211508 62 124 2.0 4.0 0.00 0.05 0.05 83 953.3
20260505210002 62 115 3.0 4.0 0.01 0.05 0.05 84 953.5
20260505204600 61 243 2.0 4.0 0.03 0.05 0.05 84 953.5
20260505203122 60 259 1.0 2.0 0.03 0.05 0.05 88 953.8
20260505201605 60 259 1.0 6.0 0.03 0.05 0.05 88 953.7
20260505200058 62 250 5.0 17.0 0.03 0.05 0.05 81 953.7
20260505194555 72 227 5.0 20.0 0.00 0.02 0.02 47 952.7
20260505193054 73 157 10.0 21.0 0.00 0.02 0.02 45 951.9
20260505191605 75 150 9.0 18.0 0.00 0.02 0.02 45 951.8
20260505190055 74 163 6.0 19.0 0.00 0.02 0.02 45 951.9
20260505184550 74 124 6.0 19.0 0.00 0.02 0.02 48 952.2
20260505183048 73 163 6.0 17.0 0.00 0.02 0.02 53 952.6
20260505181549 70 219 2.0 15.0 0.00 0.02 0.02 64 952.9
20260505180050 70 180 1.0 5.0 0.00 0.02 0.02 60 953.3
20260505174547 69 152 2.0 9.0 0.00 0.02 0.02 65 953.4
20260505173044 72 219 3.0 15.0 0.00 0.02 0.02 52 953.4
20260505171547 73 202 8.0 16.0 0.00 0.02 0.02 50 953.4
20260505164543 73 160 6.0 16.0 0.00 0.02 0.02 51 953.1
20260505163044 73 120 7.0 22.0 0.00 0.02 0.02 49 953.3
20260505161540 76 129 10.0 19.0 0.00 0.02 0.02 49 953.7
20260505153036 74 180 7.0 25.0 0.01 0.02 0.02 49 953.6
20260505151549 73 179 8.0 20.0 0.01 0.02 0.02 48 953.7
20260505124558 61 154 5.0 14.0 0.00 0.01 0.01 70 954.5
20260505123056 60 133 8.0 16.0 0.01 0.01 0.01 72 954.4
20260505121615 59 130 10.0 16.0 0.01 0.01 0.01 74 954.7
20260505120055 59 107 11.0 16.0 0.01 0.01 0.01 74 954.3
20260505114551 60 132 4.0 21.0 0.01 0.01 0.01 72 954.0
20260505113050 60 196 3.0 8.0 0.00 0.00 0.00 69 954.7
20260505111547 60 142 4.0 13.0 0.00 0.00 0.00 67 954.4
20260505101541 58 113 8.0 12.0 0.00 0.00 0.00 67 954.0
20260505100035 59 101 7.0 13.0 0.00 0.00 0.00 66 953.7
20260505094536 59 77 9.0 13.0 0.00 0.00 0.00 65 953.7
20260505093040 59 82 9.0 14.0 0.00 0.00 0.00 64 953.4
20260505091532 59 113 8.0 14.0 0.00 0.00 0.00 64 953.5
20260505090043 59 115 9.0 15.0 0.00 0.00 0.00 64 953.3
20260505084531 59 120 9.0 12.0 0.00 0.00 0.00 65 953.3
20260505083029 59 94 7.0 11.0 0.00 0.00 0.00 63 953.3
20260505081531 60 104 7.0 12.0 0.00 0.00 0.00 62 953.4
20260505080030 60 123 7.0 13.0 0.00 0.00 0.00 62 953.4
20260505074524 60 130 8.0 15.0 0.00 0.00 0.00 63 953.6
20260505073030 60 132 7.0 14.0 0.00 0.00 0.00 61 953.5
20260505071623 60 113 8.0 13.0 0.00 0.00 0.00 61 953.5
20260505070024 60 111 8.0 15.0 0.00 0.00 0.00 60 953.6
20260505064525 59 97 8.0 12.0 0.00 0.00 0.00 60 953.6
20260505063022 60 92 8.0 16.0 0.00 0.00 0.00 60 953.6
20260505061522 60 104 7.0 14.0 0.00 0.00 0.00 59 953.6
20260505060027 59 138 9.0 16.0 0.00 0.00 0.00 59 953.6
20260505054531 59 113 7.0 14.0 0.00 0.00 0.00 60 953.6
20260505053016 59 113 9.0 16.0 0.00 0.00 0.00 59 953.6
20260505051514 58 98 10.0 14.0 0.00 0.00 0.00 60 953.8
20260505041606 60 93 10.0 15.0 0.00 0.00 0.00 56 953.7
20260505040002 61 96 10.0 15.0 0.00 0.00 0.00 55 953.6
20260505034600 61 88 9.0 14.0 0.00 0.00 0.00 54 953.5